| time (UTC) | temp F | wind direction | speed MPH | gust MPH | rain 1hr in | rain 24hr in | rain mn in | humidity % | barometer mb |
| 20260903151514 | 70 | 209 | 7.0 | 13.0 | 0.00 | 0.00 | 0.00 | 68 | 1022.2 |
| 20260903150032 | 70 | 182 | 4.0 | 12.0 | 0.00 | 0.00 | 0.00 | 69 | 1022.2 |
| 20260903144516 | 69 | 197 | 4.0 | 10.0 | 0.00 | 0.00 | 0.00 | 69 | 1022.3 |
| 20260903143005 | 69 | 149 | 3.0 | 10.0 | 0.00 | 0.00 | 0.00 | 69 | 1022.4 |
| 20260903141503 | 69 | 207 | 6.0 | 10.0 | 0.00 | 0.00 | 0.00 | 70 | 1022.5 |
| 20260903140100 | 68 | 146 | 2.0 | 8.0 | 0.00 | 0.00 | 0.00 | 74 | 1022.6 |
| 20260903134614 | 66 | 186 | 3.0 | 8.0 | 0.00 | 0.00 | 0.00 | 77 | 1022.7 |
| 20260903133055 | 65 | 211 | 4.0 | 8.0 | 0.00 | 0.00 | 0.00 | 84 | 1022.7 |
| 20260903131550 | 64 | 71 | 0.0 | 2.0 | 0.00 | 0.00 | 0.00 | 89 | 1022.7 |
| 20260903130044 | 62 | 71 | 0.0 | 0.0 | 0.00 | 0.00 | 0.00 | 95 | 1022.8 |
| 20260903124550 | 60 | 105 | 0.0 | 0.0 | 0.00 | 0.00 | 0.00 | 97 | 1023.0 |
| 20260903123039 | 60 | 105 | 0.0 | 0.0 | 0.00 | 0.00 | 0.00 | 99 | 1023.0 |
| 20260903121535 | 58 | 267 | 0.0 | 0.0 | 0.00 | 0.00 | 0.00 | 100 | 1023.2 |
| 20260903120031 | 56 | 267 | 0.0 | 0.0 | 0.00 | 0.00 | 0.00 | 100 | 1023.1 |
| 20260903114527 | 53 | 267 | 0.0 | 0.0 | 0.00 | 0.00 | 0.00 | 100 | 1023.4 |
| 20260903113023 | 50 | 267 | 0.0 | 0.0 | 0.00 | 0.00 | 0.00 | 100 | 1023.3 |
| 20260903111523 | 50 | 267 | 0.0 | 0.0 | 0.00 | 0.00 | 0.00 | 100 | 1023.3 |
| 20260903110022 | 49 | 267 | 0.0 | 0.0 | 0.00 | 0.00 | 0.00 | 100 | 1023.3 |
| 20260903104523 | 48 | 267 | 0.0 | 0.0 | 0.00 | 0.00 | 0.00 | 100 | 1023.3 |
| 20260903103021 | 47 | 267 | 0.0 | 0.0 | 0.00 | 0.00 | 0.00 | 100 | 1023.2 |
| 20260903101520 | 47 | 267 | 0.0 | 0.0 | 0.00 | 0.00 | 0.00 | 100 | 1023.2 |
| 20260903100024 | 46 | 267 | 0.0 | 0.0 | 0.00 | 0.00 | 0.00 | 100 | 1023.1 |
| 20260903094519 | 46 | 267 | 0.0 | 0.0 | 0.00 | 0.00 | 0.00 | 100 | 1023.0 |
| 20260903093019 | 46 | 267 | 0.0 | 0.0 | 0.00 | 0.00 | 0.00 | 100 | 1023.0 |
| 20260903091519 | 45 | 267 | 0.0 | 0.0 | 0.00 | 0.00 | 0.00 | 100 | 1022.8 |
| 20260903090018 | 46 | 267 | 0.0 | 0.0 | 0.00 | 0.00 | 0.00 | 100 | 1022.9 |
| 20260903084527 | 46 | 267 | 0.0 | 0.0 | 0.00 | 0.00 | 0.00 | 100 | 1022.9 |
| 20260903083012 | 46 | 267 | 0.0 | 0.0 | 0.00 | 0.00 | 0.00 | 100 | 1023.1 |
| 20260903081510 | 46 | 267 | 0.0 | 0.0 | 0.00 | 0.00 | 0.00 | 100 | 1023.1 |
| 20260903080008 | 47 | 267 | 0.0 | 0.0 | 0.00 | 0.00 | 0.00 | 100 | 1023.2 |
| 20260903074507 | 47 | 267 | 0.0 | 0.0 | 0.00 | 0.00 | 0.00 | 100 | 1023.2 |
| 20260903073008 | 47 | 267 | 0.0 | 0.0 | 0.00 | 0.00 | 0.00 | 100 | 1023.2 |
| 20260903071505 | 47 | 267 | 0.0 | 0.0 | 0.00 | 0.00 | 0.00 | 100 | 1023.3 |
| 20260903070003 | 48 | 267 | 0.0 | 0.0 | 0.00 | 0.00 | 0.00 | 100 | 1023.3 |
| 20260903064502 | 48 | 267 | 0.0 | 0.0 | 0.00 | 0.00 | 0.00 | 100 | 1023.2 |
| 20260903063001 | 48 | 267 | 0.0 | 0.0 | 0.00 | 0.00 | 0.00 | 100 | 1023.1 |
| 20260903061601 | 48 | 267 | 0.0 | 0.0 | 0.00 | 0.00 | 0.00 | 100 | 1023.3 |
| 20260903060057 | 49 | 267 | 0.0 | 0.0 | 0.00 | 0.00 | 0.00 | 100 | 1023.4 |
| 20260903054557 | 49 | 267 | 0.0 | 3.0 | 0.00 | 0.00 | 0.00 | 100 | 1023.5 |
| 20260903053113 | 49 | 267 | 2.0 | 4.0 | 0.00 | 0.00 | 0.00 | 100 | 1023.4 |
| 20260903051553 | 48 | 267 | 0.0 | 0.0 | 0.00 | 0.00 | 0.00 | 99 | 1023.5 |
| 20260903044559 | 50 | 267 | 0.0 | 0.0 | 0.00 | 0.00 | 0.00 | 100 | 1023.6 |
| 20260903043106 | 49 | 267 | 0.0 | 0.0 | 0.00 | 0.00 | 0.00 | 100 | 1023.8 |
| 20260903041553 | 49 | 267 | 0.0 | 0.0 | 0.00 | 0.00 | 0.00 | 99 | 1023.6 |
| 20260903040052 | 49 | 267 | 0.0 | 1.0 | 0.00 | 0.00 | 0.00 | 99 | 1023.5 |
| 20260903034545 | 49 | 267 | 0.0 | 0.0 | 0.00 | 0.00 | 0.00 | 99 | 1023.6 |
| 20260903033042 | 50 | 267 | 0.0 | 3.0 | 0.00 | 0.00 | 0.00 | 99 | 1023.3 |
| 20260903031541 | 50 | 267 | 0.0 | 2.0 | 0.00 | 0.00 | 0.00 | 99 | 1023.3 |
| 20260903030039 | 51 | 267 | 1.0 | 3.0 | 0.00 | 0.00 | 0.00 | 99 | 1023.4 |
| 20260903024538 | 51 | 267 | 0.0 | 0.0 | 0.00 | 0.00 | 0.00 | 99 | 1023.4 |
| 20260903023038 | 51 | 267 | 0.0 | 2.0 | 0.00 | 0.00 | 0.00 | 99 | 1023.4 |
| 20260903021546 | 52 | 267 | 0.0 | 2.0 | 0.00 | 0.00 | 0.00 | 99 | 1023.5 |
| 20260903020036 | 52 | 267 | 0.0 | 0.0 | 0.00 | 0.00 | 0.00 | 99 | 1023.6 |
| 20260903014536 | 52 | 267 | 0.0 | 0.0 | 0.00 | 0.00 | 0.00 | 98 | 1023.4 |
| 20260903013035 | 52 | 267 | 0.0 | 0.0 | 0.00 | 0.00 | 0.00 | 98 | 1023.5 |
| 20260903011537 | 53 | 267 | 0.0 | 2.0 | 0.00 | 0.00 | 0.00 | 98 | 1023.5 |
| 20260903010035 | 53 | 267 | 0.0 | 0.0 | 0.00 | 0.00 | 0.00 | 97 | 1023.5 |
| 20260903004534 | 54 | 267 | 0.0 | 2.0 | 0.00 | 0.00 | 0.00 | 97 | 1023.6 |
| 20260903003034 | 54 | 267 | 0.0 | 3.0 | 0.00 | 0.00 | 0.00 | 97 | 1023.5 |
| 20260903001534 | 55 | 267 | 0.0 | 2.0 | 0.00 | 0.00 | 0.00 | 97 | 1023.4 |
| 20260903000035 | 56 | 267 | 0.0 | 0.0 | 0.00 | 0.00 | 0.00 | 96 | 1023.4 |
| 20260902234532 | 56 | 267 | 0.0 | 0.0 | 0.00 | 0.00 | 0.00 | 96 | 1023.3 |
| 20260902233032 | 57 | 267 | 0.0 | 1.0 | 0.00 | 0.00 | 0.00 | 95 | 1023.1 |
| 20260902231534 | 58 | 267 | 1.0 | 3.0 | 0.00 | 0.00 | 0.00 | 94 | 1023.1 |
| 20260902230031 | 59 | 267 | 0.0 | 3.0 | 0.00 | 0.00 | 0.00 | 93 | 1023.2 |
| 20260902224531 | 60 | 275 | 0.0 | 3.0 | 0.00 | 0.00 | 0.00 | 92 | 1023.0 |
| 20260902223031 | 62 | 275 | 0.0 | 0.0 | 0.00 | 0.00 | 0.00 | 91 | 1023.1 |
| 20260902221536 | 63 | 275 | 0.0 | 0.0 | 0.00 | 0.00 | 0.00 | 90 | 1023.0 |
| 20260902220042 | 64 | 275 | 0.0 | 2.0 | 0.00 | 0.00 | 0.00 | 90 | 1023.1 |
| 20260902214529 | 64 | 275 | 0.0 | 0.0 | 0.00 | 0.00 | 0.00 | 91 | 1023.3 |
| 20260902213028 | 64 | 275 | 0.0 | 2.0 | 0.00 | 0.00 | 0.00 | 90 | 1023.1 |
| 20260902211527 | 65 | 275 | 0.0 | 1.0 | 0.00 | 0.00 | 0.00 | 90 | 1023.2 |
| 20260902210045 | 65 | 275 | 0.0 | 2.0 | 0.00 | 0.00 | 0.00 | 87 | 1023.1 |
| 20260902204532 | 65 | 275 | 0.0 | 0.0 | 0.00 | 0.00 | 0.00 | 85 | 1023.0 |
| 20260902203024 | 66 | 275 | 3.0 | 4.0 | 0.00 | 0.00 | 0.00 | 81 | 1023.0 |
| 20260902201525 | 68 | 275 | 0.0 | 0.0 | 0.00 | 0.00 | 0.00 | 76 | 1023.0 |
| 20260902200023 | 69 | 275 | 0.0 | 5.0 | 0.00 | 0.00 | 0.00 | 69 | 1022.9 |
| 20260902194521 | 70 | 192 | 1.0 | 6.0 | 0.00 | 0.00 | 0.00 | 70 | 1023.0 |
| 20260902193020 | 70 | 90 | 3.0 | 6.0 | 0.00 | 0.00 | 0.00 | 70 | 1022.9 |
| 20260902191518 | 68 | 149 | 3.0 | 7.0 | 0.00 | 0.00 | 0.00 | 73 | 1023.0 |
| 20260902190017 | 67 | 165 | 2.0 | 5.0 | 0.00 | 0.00 | 0.00 | 77 | 1022.8 |
| 20260902184517 | 67 | 168 | 4.0 | 6.0 | 0.00 | 0.00 | 0.00 | 75 | 1022.8 |
| 20260902183017 | 67 | 163 | 3.0 | 7.0 | 0.00 | 0.00 | 0.00 | 74 | 1022.7 |
| 20260902181516 | 67 | 163 | 3.0 | 7.0 | 0.00 | 0.00 | 0.00 | 74 | 1022.8 |
| 20260902180015 | 67 | 181 | 6.0 | 8.0 | 0.00 | 0.00 | 0.00 | 72 | 1022.9 |
| 20260902174514 | 69 | 128 | 5.0 | 9.0 | 0.00 | 0.00 | 0.00 | 68 | 1022.7 |
| 20260902173014 | 69 | 92 | 1.0 | 2.0 | 0.00 | 0.00 | 0.00 | 67 | 1022.7 |
| 20260902171513 | 69 | 82 | 3.0 | 8.0 | 0.00 | 0.00 | 0.00 | 68 | 1022.8 |
| 20260902170011 | 68 | 148 | 1.0 | 5.0 | 0.00 | 0.00 | 0.00 | 69 | 1022.8 |
| 20260902164511 | 68 | 60 | 2.0 | 5.0 | 0.00 | 0.00 | 0.00 | 68 | 1022.8 |
| 20260902163010 | 67 | 313 | 2.0 | 5.0 | 0.00 | 0.00 | 0.00 | 69 | 1023.0 |
| 20260902161512 | 67 | 142 | 2.0 | 6.0 | 0.00 | 0.00 | 0.00 | 71 | 1023.1 |
| 20260902160010 | 68 | 18 | 3.0 | 7.0 | 0.00 | 0.00 | 0.00 | 68 | 1023.2 |
| 20260902154508 | 69 | 19 | 1.0 | 8.0 | 0.00 | 0.00 | 0.00 | 68 | 1023.2 |
| 20260902153008 | 68 | 191 | 1.0 | 7.0 | 0.00 | 0.00 | 0.00 | 72 | 1023.3 |